Regional Weather Roundup
Issued by NWS

Home | Current Version | Previous Version | Text Only | Print | Product List | Glossary On
Versions: 1 2 3 4 5 6 7 8 9 10 11 12 13 14 15 16 17 18 19 20 21 22 23 24 25 26 27 28 29 30 31 32 33 34 35 36 37 38 39 40 41 42 43 44 45 46 47 48 49 50
000
ASUS43 KDMX 291408
RWRIA

WEATHER ROUNDUP FOR IOWA
NATIONAL WEATHER SERVICE DES MOINES IA
900 AM CDT FRI APR 29 2016

NOTE: "FAIR" INDICATES FEW OR NO CLOUDS BELOW 12,000 FEET WITH NO
SIGNIFICANT WEATHER AND/OR OBSTRUCTIONS TO VISIBILITY.

* - THESE STATIONS ARE NOT NWS STATIONS...THUS NOT UNDER NWS
QUALITY CONTROL.  THEY ALSO DO NOT REPORT WEATHER SUCH
AS PRECIPITATION OR FOG.

IAZ001>003-012>014-020>022-031>034-043>046-291500-
   NORTHWEST IOWA

CITY           SKY/WX    TMP DP  RH WIND       PRES   REMARKS
CARROLL *      CLOUDY    43  39  87 N17       30.07F
CHEROKEE *     CLOUDY    43  41  93 NE13      30.10F
DENISON *      CLOUDY    43  41  93 NE13      30.04F
LE MARS *      CLOUDY    43  39  87 NE12      30.12F
ORANGE CITY *  CLOUDY    39  39 100 NE6       30.12S FOG     WCI  35
SHELDON *      CLOUDY    41  39  93 NE12      30.11F
SIOUX CITY     CLOUDY    45  39  79 N10       30.09F
SPENCER        CLOUDY    40  37  89 NE12      30.13F WCI  33
STORM LAKE *   CLOUDY    41  39  93 NE18      30.08F
$$

IAZ055>058-069>071-079>083-090>094-291500-
   SOUTHWEST IOWA

CITY           SKY/WX    TMP DP  RH WIND       PRES   REMARKS
ATLANTIC *     CLOUDY    45  41  87 NE13      30.07S
AUDUBON *      PTSUNNY   43  39  87 N13       30.07S
CLARINDA *       N/A    N/A N/A N/A MISG        N/A
COUNCIL BLFS *   N/A     45  39  81 NE14      30.07S
CRESTON *      CLOUDY    45  41  87 NE8G14    30.10R
HARLAN  *      CLOUDY    45  41  87 N12       30.09F
LAMONI         CLOUDY    46  44  93 NE7       30.09R FOG
RED OAK *      CLOUDY    46  39  76 NE12      30.09R
SHENANDOAH *   CLOUDY    46  43  87 NE12      30.10R
$$

IAZ047>049-059>061-072>074-084-291500-
   CENTRAL IOWA

CITY           SKY/WX    TMP DP  RH WIND       PRES   REMARKS
AMES           CLOUDY    44  41  89 N14G20    30.06F
ANKENY *       CLOUDY    45  45 100 NE10G16   30.08R
BOONE *        CLOUDY    43  41  93 N20       30.05F
CHARITON *     CLOUDY    48  45  87 E7        30.11R
DES MOINES     CLOUDY    48  41  76 N8        30.08R
GRINNELL*      CLOUDY    45  41  87 N14G21    30.07R
KNOXVILLE *    CLOUDY    48  43  81 NE7       30.08R
MARSHALLTOWN   CLOUDY    45  40  82 NE20      30.06F
NEWTON *       CLOUDY    45  45 100 NE14G20   30.07R
PELLA *        CLOUDY    46  43  87 N3        30.11R
$$

IAZ004>006-015-016-023>025-035-036-291500-
   NORTH CENTRAL IOWA

CITY           SKY/WX    TMP DP  RH WIND       PRES   REMARKS
ALGONA *       PTSUNNY   41  39  93 N12       30.13F
CLARION *      CLOUDY    43  43 100 NE16      30.10F
ESTHERVILLE    CLOUDY    40  37  89 N13       30.14F WCI  32
FORT DODGE *   CLOUDY    43  37  81 NE15      30.09F
MASON CITY     CLOUDY    39  37  92 N15       30.14F WCI  31
FOREST CITY *  CLOUDY    37  37 100 N12       30.13F WCI  30
WEBSTER CITY * CLOUDY    43  43 100 N15G21    30.06F
IOWA FALLS *   CLOUDY    43  39  87 N13       30.09F
$$

IAZ007>011-017>019-026>030-037>042-050>054-066-291500-
   NORTHEAST IOWA

CITY           SKY/WX    TMP DP  RH WIND       PRES   REMARKS
CEDAR RAPIDS   CLOUDY    44  42  93 N13       30.06F
CHARLES CITY * CLOUDY    41  41 100 NE13      30.13F
CLINTON *      CLOUDY    44  40  85 NE14      30.08R
DECORAH *      CLOUDY    41  37  87 N12       30.12F
DUBUQUE        CLOUDY    42  39  89 N13       30.08F
MONTICELLO *   CLOUDY    43  39  87 N12       30.08S
OELWEIN *      CLOUDY    43  41  93 N13       30.10F
WATERLOO       PTSUNNY   45  38  76 N15       30.09F
$$

IAZ064-065-067-068-078-291500-
   EAST CENTRAL IOWA

CITY           SKY/WX    TMP DP  RH WIND       PRES   REMARKS
DAVENPORT      CLOUDY    44  40  85 NE14      30.09R
IOWA CITY      CLOUDY    45  40  82 N16G23    30.08F
MT. PLEASANT * CLOUDY    48  46  93 NE7       30.12R
MUSCATINE *    CLOUDY    46  41  81 NE14      30.07S
QUAD CITIES    CLOUDY    46  40  79 N9        30.07S
$$

IAZ062-063-075>077-085>089-095>099-291500-
   SOUTHEAST IOWA

CITY           SKY/WX    TMP DP  RH WIND       PRES   REMARKS
BURLINGTON     CLOUDY    48  44  86 N8        30.08R
FAIRFIELD *    CLOUDY    46  43  87 NE7       30.11R
FORT MADISON * CLOUDY    48  45  87 N5        30.11R
KEOKUK *       CLOUDY    50  45  81 N8        30.09R
OSKALOOSA *    CLOUDY    46  43  87 N5        30.12R
OTTUMWA        CLOUDY    47  42  83 E7        30.11R
WASHINGTON *   CLOUDY    46  45  93 NE10G18   30.10R
$$

ABBREVIATIONS USED IN REMARKS
   TC - TEMPERATURES IN CELSIUS
  WCI - WIND CHILL INDEX
   HX - HEAT INDEX
  VSB - VISIBILITY
$$





USA.gov is the U.S. government's official web portal to all federal, state and local government web resources and services.